When you browse on this site, cookies collect data to enhance your experience and personalize the content and advertising you see.
Visit our Privacy Policy to learn more. By continuing to use the site, you agree to this use of cookies and data.

Previsão horária em Abaran

Hoje, 26 Setembro, Sábado

Tempo Temperatura Precipitação Vento Pressão Humidade
00:00 +17°C° 0 mm 3 m/s 731 mmHg 36%
01:00 +16°C° 0 mm 3 m/s 731 mmHg 38%
02:00 +16°C° 0 mm 3 m/s 730 mmHg 40%
03:00 +14°C° 0 mm 3 m/s 730 mmHg 42%
04:00 +14°C° 0 mm 3 m/s 730 mmHg 43%
05:00 +13°C° 0 mm 3 m/s 730 mmHg 45%
06:00 +13°C° 0 mm 4 m/s 730 mmHg 46%
07:00 +15°C° 0 mm 5 m/s 730 mmHg 42%
08:00 +16°C° 0 mm 6 m/s 730 mmHg 38%
09:00 +18°C° 0 mm 7 m/s 730 mmHg 33%
10:00 +20°C° 0 mm 7 m/s 730 mmHg 31%
11:00 +22°C° 0 mm 7 m/s 730 mmHg 28%
12:00 +23°C° 0 mm 8 m/s 730 mmHg 26%
13:00 +24°C° 0 mm 7 m/s 729 mmHg 25%
14:00 +24°C° 0 mm 7 m/s 728 mmHg 25%
15:00 +26°C° 0 mm 7 m/s 728 mmHg 25%
16:00 +24°C° 0 mm 6 m/s 728 mmHg 27%
17:00 +23°C° 0 mm 6 m/s 727 mmHg 29%
18:00 +22°C° 0 mm 5 m/s 727 mmHg 31%
19:00 +21°C° 0 mm 5 m/s 727 mmHg 33%
20:00 +21°C° 0 mm 4 m/s 727 mmHg 35%
21:00 +20°C° 0 mm 4 m/s 727 mmHg 37%
22:00 +20°C° 0 mm 4 m/s 727 mmHg 38%
23:00 +20°C° 0 mm 5 m/s 726 mmHg 39%

Amanhã, 27 Setembro, Domingo

Tempo Temperatura Precipitação Vento Pressão Humidade
00:00 +19°C° 0 mm 5 m/s 726 mmHg 40%
01:00 +19°C° 0 mm 5 m/s 725 mmHg 42%
02:00 +19°C° 0 mm 6 m/s 725 mmHg 43%
03:00 +17°C° 0 mm 6 m/s 724 mmHg 45%
04:00 +17°C° 0 mm 6 m/s 724 mmHg 48%
05:00 +16°C° 0 mm 6 m/s 725 mmHg 51%
06:00 +16°C° 0 mm 6 m/s 725 mmHg 54%
07:00 +17°C° 0 mm 7 m/s 725 mmHg 51%
08:00 +20°C° 0 mm 8 m/s 726 mmHg 47%
09:00 +21°C° 0 mm 9 m/s 726 mmHg 44%
10:00 +23°C° 0 mm 8 m/s 726 mmHg 37%
11:00 +24°C° 0 mm 7 m/s 726 mmHg 29%
12:00 +26°C° 0 mm 7 m/s 727 mmHg 22%
13:00 +26°C° 0 mm 6 m/s 726 mmHg 23%
14:00 +26°C° 0 mm 6 m/s 726 mmHg 24%
15:00 +26°C° 0 mm 5 m/s 725 mmHg 25%
16:00 +23°C° 0 mm 4 m/s 725 mmHg 32%
17:00 +22°C° 0 mm 4 m/s 725 mmHg 39%
18:00 +20°C° 0 mm 3 m/s 725 mmHg 46%
19:00 +19°C° 0 mm 2 m/s 726 mmHg 51%
20:00 +19°C° 0 mm 1 m/s 726 mmHg 55%
21:00 +18°C° 0 mm 1 m/s 726 mmHg 60%
22:00 +18°C° 0 mm 1 m/s 726 mmHg 57%
23:00 +18°C° 0 mm 1 m/s 727 mmHg 55%

Depois de amanhã, 28 Setembro, Segunda-feira

Tempo Temperatura Precipitação Vento Pressão Humidade
00:00 +17°C° 0 mm 2 m/s 727 mmHg 53%
01:00 +16°C° 0 mm 2 m/s 726 mmHg 47%
02:00 +16°C° 0 mm 2 m/s 726 mmHg 42%
03:00 +14°C° 0 mm 3 m/s 726 mmHg 37%
04:00 +15°C° 0 mm 2 m/s 726 mmHg 37%
05:00 +14°C° 0 mm 2 m/s 726 mmHg 38%
06:00 +14°C° 0 mm 2 m/s 727 mmHg 39%
07:00 +16°C° 0 mm 2 m/s 727 mmHg 33%
08:00 +18°C° 0 mm 2 m/s 728 mmHg 28%
09:00 +20°C° 0 mm 2 m/s 728 mmHg 22%
10:00 +23°C° 0 mm 2 m/s 728 mmHg 20%
11:00 +25°C° 0 mm 2 m/s 728 mmHg 18%
12:00 +26°C° 0 mm 2 m/s 728 mmHg 16%
13:00 +27°C° 0 mm 2 m/s 728 mmHg 17%
14:00 +27°C° 0 mm 2 m/s 728 mmHg 18%
15:00 +27°C° 0 mm 2 m/s 727 mmHg 18%
16:00 +25°C° 0 mm 2 m/s 727 mmHg 30%
17:00 +22°C° 0 mm 3 m/s 727 mmHg 42%
18:00 +20°C° 0 mm 3 m/s 727 mmHg 53%
19:00 +20°C° 0 mm 2 m/s 728 mmHg 60%
20:00 +19°C° 0 mm 2 m/s 728 mmHg 67%
21:00 +19°C° 0 mm 1 m/s 729 mmHg 74%
22:00 +19°C° 0 mm 1 m/s 729 mmHg 76%
23:00 +18°C° 0 mm 1 m/s 729 mmHg 79%

29 Setembro, Terça-feira

Tempo Temperatura Precipitação Vento Pressão Humidade
00:00 +18°C° 0 mm 1 m/s 729 mmHg 81%
01:00 +16°C° 0 mm 1 m/s 728 mmHg 83%
02:00 +16°C° 0 mm 1 m/s 728 mmHg 85%
03:00 +15°C° 0 mm 1 m/s 728 mmHg 87%
04:00 +15°C° 0 mm 1 m/s 728 mmHg 88%
05:00 +15°C° 0 mm 1 m/s 728 mmHg 88%
06:00 +14°C° 0 mm 0 m/s 728 mmHg 89%
07:00 +18°C° 0 mm 1 m/s 728 mmHg 79%
08:00 +19°C° 0 mm 1 m/s 729 mmHg 69%
09:00 +21°C° 0 mm 1 m/s 729 mmHg 59%
10:00 +23°C° 0 mm 2 m/s 729 mmHg 51%
11:00 +24°C° 0 mm 2 m/s 729 mmHg 43%
12:00 +26°C° 0 mm 3 m/s 729 mmHg 35%
13:00 +26°C° 0 mm 3 m/s 729 mmHg 34%
14:00 +27°C° 0 mm 4 m/s 728 mmHg 34%
15:00 +27°C° 0 mm 4 m/s 728 mmHg 33%
16:00 +25°C° 0 mm 4 m/s 728 mmHg 40%
17:00 +24°C° 0 mm 3 m/s 728 mmHg 46%
18:00 +21°C° 0 mm 3 m/s 728 mmHg 53%
19:00 +20°C° 0 mm 2 m/s 728 mmHg 58%
20:00 +20°C° 0 mm 1 m/s 728 mmHg 63%
21:00 +20°C° 0 mm 1 m/s 728 mmHg 68%
22:00 +17°C° 0 mm 0 m/s 728 mmHg 71%
23:00 +17°C° 0 mm 0 m/s 728 mmHg 73%

30 Setembro, Quarta-feira

Tempo Temperatura Precipitação Vento Pressão Humidade
00:00 +16°C° 0 mm 0 m/s 728 mmHg 75%
01:00 +16°C° 0 mm 0 m/s 728 mmHg 77%
02:00 +15°C° 0 mm 0 m/s 727 mmHg 78%
03:00 +15°C° 0 mm 0 m/s 727 mmHg 80%
04:00 +15°C° 0 mm 0 m/s 727 mmHg 80%
05:00 +14°C° 0 mm 0 m/s 727 mmHg 80%
06:00 +14°C° 0 mm 0 m/s 727 mmHg 81%
07:00 +16°C° 0 mm 0 m/s 728 mmHg 70%
08:00 +19°C° 0 mm 0 m/s 728 mmHg 59%
09:00 +21°C° 0 mm 0 m/s 728 mmHg 48%
10:00 +25°C° 0 mm 1 m/s 728 mmHg 42%
11:00 +26°C° 0 mm 1 m/s 728 mmHg 37%
12:00 +28°C° 0 mm 2 m/s 728 mmHg 31%
13:00 +28°C° 0 mm 3 m/s 728 mmHg 30%
14:00 +29°C° 0 mm 3 m/s 727 mmHg 30%
15:00 +29°C° 0 mm 3 m/s 727 mmHg 29%
16:00 +28°C° 0 mm 3 m/s 727 mmHg 38%
17:00 +26°C° 0 mm 3 m/s 727 mmHg 47%
18:00 +24°C° 0 mm 3 m/s 727 mmHg 55%
19:00 +23°C° 0 mm 2 m/s 727 mmHg 61%
20:00 +22°C° 0 mm 1 m/s 727 mmHg 66%
21:00 +21°C° 0 mm 1 m/s 727 mmHg 71%
22:00 +18°C° 0 mm 0 m/s 727 mmHg 73%
23:00 +18°C° 0 mm 0 m/s 726 mmHg 75%

1 Outubro, Quinta-feira

Tempo Temperatura Precipitação Vento Pressão Humidade
00:00 +17°C° 0 mm 0 m/s 726 mmHg 77%
01:00 +17°C° 0 mm 0 m/s 726 mmHg 77%
02:00 +17°C° 0 mm 0 m/s 726 mmHg 77%
03:00 +16°C° 0 mm 0 m/s 725 mmHg 76%
04:00 +16°C° 0 mm 0 m/s 725 mmHg 75%
05:00 +16°C° 0 mm 0 m/s 725 mmHg 74%
06:00 +16°C° 0 mm 0 m/s 725 mmHg 73%
07:00 +20°C° 0 mm 1 m/s 725 mmHg 61%
08:00 +23°C° 0 mm 1 m/s 726 mmHg 48%
09:00 +26°C° 0 mm 1 m/s 726 mmHg 36%
10:00 +27°C° 0 mm 1 m/s 726 mmHg 31%
11:00 +29°C° 0 mm 2 m/s 726 mmHg 27%
12:00 +30°C° 0 mm 2 m/s 726 mmHg 22%
13:00 +31°C° 0 mm 2 m/s 726 mmHg 20%
14:00 +32°C° 0 mm 2 m/s 725 mmHg 19%
15:00 +33°C° 0 mm 3 m/s 725 mmHg 18%
16:00 +30°C° 0 mm 2 m/s 725 mmHg 24%
17:00 +28°C° 0 mm 2 m/s 724 mmHg 29%
18:00 +26°C° 0 mm 2 m/s 724 mmHg 35%
19:00 +25°C° 0 mm 2 m/s 724 mmHg 38%
20:00 +24°C° 0 mm 1 m/s 724 mmHg 41%
21:00 +23°C° 0 mm 1 m/s 725 mmHg 44%
22:00 +22°C° 0 mm 1 m/s 724 mmHg 42%
23:00 +21°C° 0 mm 2 m/s 724 mmHg 41%
Mostrar mais